• Join FlightAware (Why Join?)
  • Login
  • US Flag 
05:08PM EST


 

Airport Tracker/Info


-or-


 

Live Flight TrackerFlight Track Log ✈ UPS1081 ✈ 30-Oct-2013 ✈ KEWR - KSDF

Flight Track Log - Related Links

Times and Time Zones

All times are in EDT time to prevent confusion due to time zone crossing. See the UPS1081 flight status page for this flight to view local times or setup timezone preferences in your user account.

Time Position Orientation Groundspeed Altitude Reporting Facility
EDT Latitude Longitude Course Direction KTS MPH feet Rate Location/Type
11:11PM 40.6685 -74.1814 27° Northeast 162 186 1,100  Level FlightAware ADS-B
11:11PM 40.6658 -74.1816 183° South 162 186 1,300 2,167 Climbing FlightAware ADS-B
11:12PM 40.6397 -74.1854 186° South 193 222 2,400 1,959 Climbing FlightAware ADS-B
11:12PM 40.6255 -74.1940 205° Southwest 193 222 2,900 1,742 Climbing FlightAware ADS-B
11:12PM 40.6111 -74.2030 205° Southwest 249 287 3,300 2,250 Climbing FlightAware ADS-B
11:12PM 40.6010 -74.2099 207° Southwest 255 293 3,800 3,429 Climbing FlightAware ADS-B
11:12PM 40.5961 -74.2140 212° Southwest 255 293 4,100 4,000 Climbing FlightAware ADS-B
11:12PM 40.5928 -74.2168 213° Southwest 254 292 4,400 4,500 Climbing FlightAware ADS-B
11:12PM 40.5894 -74.2223 231° Southwest 255 293 4,700 4,286 Climbing FlightAware ADS-B
11:12PM 40.5872 -74.2259 231° Southwest 254 292 4,900 3,429 Climbing FlightAware ADS-B
11:13PM 40.5849 -74.2312 240° Southwest 254 292 5,100 3,750 Climbing FlightAware ADS-B
11:13PM 40.5831 -74.2369 247° West 253 291 5,400 4,286 Climbing FlightAware ADS-B
11:13PM 40.5821 -74.2413 253° West 254 292 5,600 3,652 Climbing FlightAware ADS-B
11:13PM 40.5830 -74.2722 272° West 260 299 6,800 3,488 Climbing FlightAware ADS-B
11:13PM 40.5910 -74.3062 287° West 269 310 8,100 3,632 Climbing FlightAware ADS-B
11:14PM 40.5969 -74.3314 287° West 273 314 9,100 2,893 Climbing FlightAware ADS-B
11:14PM 40.6110 -74.3980 286° West 303 349 10,800 2,167 Climbing FlightAware
11:15PM 40.6250 -74.4580 287° West 338 389 11,700 2,364 Climbing FlightAware
11:15PM 40.6350 -74.5310 280° West 351 404 13,400 3,000 Climbing FlightAware
11:16PM 40.6290 -74.5800 261° West 362 417 14,600 2,455 Climbing FlightAware
11:17PM 40.5890 -74.7210 250° West 393 452 17,000 2,350 Climbing FlightAware
11:18PM 40.5540 -74.8400 249° West 401 461 19,300 2,505 Climbing FlightAware
11:18PM 40.5290 -74.9250 249° West 408 470 20,800 2,362 Climbing FlightAware
11:19PM 40.4900 -75.0580 249° West 415 478 23,000 2,082 Climbing FlightAware
11:20PM 40.4620 -75.1560 249° West 428 493 24,200 1,630 Climbing FlightAware
11:21PM 40.4240 -75.2820 248° West 443 510 25,500 1,425 Climbing FlightAware
11:21PM 40.4030 -75.3550 249° West 452 520 26,100 1,769 Climbing FlightAware
11:22PM 40.3640 -75.4830 248° West 450 518 27,800 2,073 Climbing FlightAware
11:23PM 40.3200 -75.6310 249° West 441 507 29,900 1,866 Climbing FlightAware
11:24PM 40.2760 -75.7780 249° West 438 504 31,500 1,370 Climbing FlightAware
11:25PM 40.2510 -75.8590 248° West 440 506 32,000 306 Climbing FlightAware
11:26PM 40.2020 -76.0240 249° West 435 501 32,000  Level FlightAware
11:27PM 40.1640 -76.1460 248° West 432 497 32,000  Level FlightAware
11:27PM 40.1400 -76.2230 248° West 432 497 32,000  Level FlightAware
11:28PM 40.1032 -76.3282 245° Southwest 444 511 32,000  Level FlightAware ADS-B
11:28PM 40.0704 -76.3997 239° Southwest 447 514 32,000  Level FlightAware ADS-B
11:29PM 40.0363 -76.4735 239° Southwest 447 514 32,000  Level FlightAware ADS-B
11:30PM 40.0011 -76.5474 238° Southwest 449 517 32,000  Level FlightAware ADS-B
11:30PM 39.9603 -76.6353 239° Southwest 449 517 32,000  Level FlightAware ADS-B
11:31PM 39.9272 -76.7067 239° Southwest 448 516 32,000  Level FlightAware ADS-B
11:31PM 39.8915 -76.7827 239° Southwest 448 516 32,000  Level FlightAware ADS-B
11:32PM 39.8440 -76.8860 239° Southwest 446 513 32,000  Level FlightAware
11:32PM 39.8130 -76.9503 238° Southwest 446 513 32,000  Level FlightAware ADS-B
11:33PM 39.7845 -77.0119 239° Southwest 446 513 32,000  Level FlightAware ADS-B
11:33PM 39.7445 -77.0965 238° Southwest 447 514 32,000  Level FlightAware ADS-B
11:34PM 39.7146 -77.1582 238° Southwest 447 514 32,000  Level FlightAware ADS-B
11:35PM 39.6394 -77.3180 239° Southwest 447 514 32,000  Level FlightAware ADS-B
11:36PM 39.6036 -77.3932 238° Southwest 446 513 32,000  Level FlightAware ADS-B
11:36PM 39.5690 -77.4660 238° Southwest 445 512 32,000  Level FlightAware
11:37PM 39.5100 -77.5880 238° Southwest 444 511 32,000  Level FlightAware
11:38PM 39.4630 -77.6850 238° Southwest 441 507 32,000  Level FlightAware
11:38PM 39.4240 -77.7670 238° Southwest 439 505 32,000  Level FlightAware
11:39PM 39.3740 -77.8750 239° Southwest 434 499 32,000  Level FlightAware
11:40PM 39.3373 -77.9671 243° Southwest 434 499 32,000  Level FlightAware ADS-B (KWWD)
11:40PM 39.3078 -78.0414 243° Southwest 438 504 32,000  Level FlightAware ADS-B (KWWD)
11:41PM 39.2809 -78.1113 244° Southwest 434 499 32,000  Level FlightAware ADS-B (KWWD)
11:42PM 39.2438 -78.2040 243° Southwest 433 498 32,000  Level FlightAware ADS-B (KWWD)
11:42PM 39.2150 -78.2754 242° Southwest 432 497 32,000  Level FlightAware ADS-B (KWWD)
11:43PM 39.1602 -78.4112 243° Southwest 432 497 32,000  Level FlightAware ADS-B (KWWD)
11:44PM 39.1329 -78.4775 242° Southwest 429 494 32,000  Level FlightAware ADS-B (KWWD)
11:44PM 39.1043 -78.5503 243° Southwest 427 491 32,000  Level FlightAware ADS-B (KWWD)
11:45PM 39.0678 -78.6387 242° Southwest 429 494 32,000  Level FlightAware ADS-B (KWWD)
11:45PM 39.0401 -78.7061 242° Southwest 426 490 32,000  Level FlightAware ADS-B (KWWD)
11:46PM 39.0051 -78.7935 243° Southwest 425 489 32,000  Level FlightAware ADS-B (KWWD)
11:46PM 38.9776 -78.8607 242° Southwest 425 489 32,000  Level FlightAware ADS-B (KWWD)
11:47PM 38.9440 -78.9430 242° Southwest 424 488 32,000  Level FlightAware
11:48PM 38.8970 -79.0580 242° Southwest 428 493 32,000  Level FlightAware
11:48PM 38.8744 -79.1116 242° Southwest 425 489 32,000  Level FlightAware ADS-B (KWWD)
11:49PM 38.8429 -79.1985 245° Southwest 421 484 32,000  Level FlightAware ADS-B (KWWD)
11:49PM 38.8224 -79.2869 253° West 417 480 32,000  Level FlightAware ADS-B (KWWD)
11:50PM 38.8052 -79.3883 258° West 415 478 32,000  Level FlightAware ADS-B (KWWD)
11:51PM 38.7910 -79.4700 257° West 417 480 32,000  Level FlightAware
11:52PM 38.7710 -79.5790 257° West 419 482 32,000  Level FlightAware
11:52PM 38.7510 -79.6850 256° West 419 482 32,000  Level FlightAware
11:53PM 38.7300 -79.8010 257° West 419 482 32,000  Level FlightAware
11:54PM 38.7100 -79.9100 257° West 418 481 32,000  Level FlightAware
11:55PM 38.6910 -80.0140 257° West 418 481 32,000  Level FlightAware
11:55PM 38.6690 -80.1290 256° West 418 481 32,000  Level FlightAware
11:56PM 38.6540 -80.2090 257° West 416 479 32,000  Level FlightAware
11:57PM 38.6340 -80.3140 256° West 416 479 32,000  Level FlightAware
11:58PM 38.6140 -80.4140 256° West 416 479 32,000  Level FlightAware
11:59PM 38.5850 -80.5720 257° West 412 474 32,000  Level FlightAware
11:59PM 38.5660 -80.6680 256° West 412 474 32,000  Level FlightAware
12:00AM 38.5470 -80.7650 256° West 412 474 32,000  Level FlightAware
12:01AM 38.5240 -80.8850 256° West 412 474 32,000  Level FlightAware
12:02AM 38.5100 -80.9570 256° West 412 474 32,000  Level FlightAware
12:03AM 38.4910 -81.0540 256° West 412 474 32,000  Level FlightAware
12:03AM 38.4720 -81.1500 256° West 412 474 32,000  Level FlightAware
12:04AM 38.4630 -81.1940 255° West 412 474 32,000  Level FlightAware
12:05AM 38.3690 -81.5320 251° West 412 474 32,000  Level FlightAware
12:06AM 38.3450 -81.6550 256° West 411 473 32,000  Level FlightAware
12:07AM 38.3240 -81.7630 256° West 409 471 32,000  Level FlightAware
12:08AM 38.3010 -81.8820 256° West 407 468 32,000  Level FlightAware
12:09AM 38.2820 -81.9790 256° West 407 468 32,000  Level FlightAware
12:10AM 38.2580 -82.1000 256° West 407 468 32,000  Level FlightAware
12:10AM 38.2440 -82.1730 256° West 407 468 32,000  Level FlightAware
12:11AM 38.2290 -82.2500 256° West 407 468 32,000  Level FlightAware
12:12AM 38.2080 -82.3550 256° West 407 468 32,000  Level FlightAware
12:12AM 38.1821 -82.4818 255° West 410 472 32,000  Level FlightAware ADS-B
12:13AM 38.1630 -82.5746 255° West 410 472 32,000  Level FlightAware ADS-B
12:13AM 38.1462 -82.6578 256° West 407 468 32,000  Level FlightAware ADS-B
12:14AM 38.1210 -82.7810 255° West 408 470 32,000  Level FlightAware
12:15AM 38.1050 -82.8600 256° West 410 472 32,000  Level FlightAware
12:16AM 38.0773 -82.9952 255° West 411 473 32,000  Level FlightAware ADS-B
12:16AM 38.0575 -83.0908 255° West 410 472 32,000  Level FlightAware ADS-B
12:17AM 38.0429 -83.1629 256° West 410 472 32,000  Level FlightAware ADS-B
12:17AM 38.0278 -83.2348 255° West 409 471 32,000  Level FlightAware ADS-B
12:18AM 38.0015 -83.3601 255° West 410 472 32,000  Level FlightAware ADS-B
12:19AM 37.9863 -83.4338 255° West 406 467 32,000  Level FlightAware ADS-B
12:20AM 37.9636 -83.5398 255° West 408 470 32,000 -385 Level FlightAware ADS-B
12:20AM 37.9482 -83.6137 255° West 412 474 31,500 -1,611 Descending FlightAware ADS-B
12:21AM 37.9101 -83.7923 255° West 422 486 29,100 -1,952 Descending FlightAware ADS-B
12:22AM 37.8840 -83.9140 255° West 437 503 27,400 -2,000 Descending FlightAware
12:22AM 37.8774 -83.9458 255° West 424 488 27,000 -1,909 Descending FlightAware ADS-B
12:23AM 37.8610 -84.0210 255° West 445 512 26,000 -2,000 Descending FlightAware
12:24AM 37.8310 -84.1620 255° West 432 497 24,100 -2,085 Descending FlightAware
12:25AM 37.7980 -84.3130 255° West 424 488 21,900 -2,106 Descending FlightAware
12:25AM 37.7820 -84.3860 255° West 410 472 20,800 -2,217 Descending FlightAware
12:26AM 37.7520 -84.5190 254° West 383 441 18,500 -2,564 Descending FlightAware
12:27AM 37.7290 -84.6260 255° West 378 435 16,100 -3,000 Descending FlightAware
12:28AM 37.7050 -84.7330 254° West 368 423 13,500 -2,880 Descending FlightAware
12:29AM 37.6830 -84.8310 254° West 361 415 11,300 -2,108 Descending FlightAware
12:29AM 37.6720 -84.8820 255° West 357 411 10,900 -500 Descending FlightAware
12:30AM 37.6650 -84.9250 258° West 361 415 10,900 -107 Level FlightAware
12:30AM 37.6850 -84.9950 290° West 380 437 10,800 -429 Descending FlightAware
12:31AM 37.7490 -85.0810 313° West 380 437 10,300 -500 Descending FlightAware
12:32AM 37.8140 -85.1690 313° West 356 410 9,900 -316 Descending FlightAware
12:32AM 37.8340 -85.1990 310° West 328 377 9,900  Level FlightAware
12:33AM 37.8580 -85.2310 314° West 298 343 9,900 -310 Level FlightAware
12:33AM 37.8890 -85.2730 313° West 280 322 9,600 -889 Descending FlightAware
12:34AM 37.9060 -85.2990 310° West 276 318 9,100 -1,500 Descending FlightAware
12:34AM 37.9190 -85.3170 312° West 275 316 8,700 -1,552 Descending FlightAware
12:35AM 37.9550 -85.3680 312° West 277 319 7,600 -1,594 Descending FlightAware
12:35AM 37.9750 -85.3960 312° West 276 318 7,000 -1,571 Descending FlightAware
12:35AM 37.9910 -85.4190 311° West 273 314 6,500 -1,421 Descending FlightAware
12:36AM 38.0050 -85.4390 312° West 274 315 6,100 -837 Descending FlightAware
12:36AM 38.0260 -85.4690 312° West 272 313 5,900 -240 Descending FlightAware
12:37AM 38.0460 -85.4960 313° West 272 313 5,900  Level FlightAware
12:37AM 38.0630 -85.5200 312° West 273 314 5,900 -480 Level FlightAware
12:37AM 38.0880 -85.5540 313° West 273 314 5,500 -933 Descending FlightAware
12:38AM 38.1030 -85.5750 312° West 274 315 5,200 -667 Descending FlightAware
12:38AM 38.1370 -85.5910 340° North 288 331 5,000 -360 Descending FlightAware
12:38AM 38.1600 -85.5980 347° North 285 328 4,900 -113 Descending FlightAware
12:39AM 38.2110 -85.6130 347° North 285 328 4,900 -492 Level FlightAware
12:39AM 38.2470 -85.6230 348° North 285 328 4,400 -1,364 Descending FlightAware
12:40AM 38.2680 -85.6300 345° North 288 331 3,900 -1,667 Descending FlightAware
12:40AM 38.2920 -85.6370 347° North 290 334 3,400 -1,125 Descending FlightAware
12:41AM 38.3290 -85.6480 347° North 280 322 3,000 -536 Descending FlightAware
12:41AM 38.3540 -85.6710 324° Northwest 221 254 2,900 -150 Descending FlightAware
12:41AM 38.3570 -85.6860 284° West 189 217 2,900  Level FlightAware
12:42AM 38.3540 -85.7210 264° West 156 180 2,900  Level FlightAware
12:42AM 38.3510 -85.7390 258° West 143 165 2,900  Level FlightAware
12:43AM 38.3370 -85.7470 204° Southwest 142 163 2,900 -115 Level FlightAware
12:43AM 38.3190 -85.7520 192° South 145 167 2,800 -643 Descending FlightAware
12:43AM 38.3000 -85.7570 192° South 142 163 2,300 -429 Descending FlightAware
12:44AM 38.2840 -85.7600 188° South 116 133 2,400 176 Climbing FlightAware
12:44AM 38.2810 -85.7600 180° South 113 130 2,400 -625 Level FlightAware
12:45AM 38.2600 -85.7560 171° South 104 120 1,900 -621 Descending FlightAware
12:45AM 38.2540 -85.7540 165° South 107 123 1,800 -571 Descending FlightAware
12:45AM 38.2400 -85.7500 167° South 111 128 1,500 -600 Descending FlightAware
12:46AM 38.2280 -85.7450 162° South 114 131 1,300 -600 Descending FlightAware
12:46AM 38.2200 -85.7430 169° South 114 131 1,100 -600 Descending FlightAware
12:47AM 38.2070 -85.7380 163° South 118 136 900 -667 Descending FlightAware
12:47AM 38.1900 -85.7330 167° South 126 145 500 -800 Descending FlightAware
12:47AM 38.1780 -85.7280 162° South 110 127 -1,364 Descending FlightAware